Location: Nelson
(41.2830°S, 173.2830°E)
Time: 06:00:48
(UTC+12:00)

CORIOLIS - Pass Details

Date: 14 May 2021
Orbit: 817 x 839 km, 98.7° (Epoch: 17 June)

Event Time Altitude Azimuth Distance (km) Brightness Sun altitude
Rises 18:55:56 0° 166° (SSE) 3,421 7.1 -18.2°
Reaches altitude 10° 18:58:19 10° 165° (SSE) 2,482 6.4 -18.7°
Maximum altitude 19:03:51 85° 76° (ENE) 857 4.1 -19.7°
Drops below altitude 10° 19:09:19 10° 347° (NNW) 2,458 6.8 -20.7°
Sets 19:11:40 0° 346° (NNW) 3,385 7.6 -21.2°
